Flag for U.S.A. Weather past 2 weeks in Jackson, Wyoming, U.S.A.

Now
54 °F

Sunny.


Feels Like: 54 °F
Forecast: 46 / 75 °F
Wind: No wind

Location: Jackson Hole

Current Time: Jul 31, 2014 at 10:07:22 AM

Latest Report: Jul 31, 2014 at 8:56 AM


Visibility: 10 mi

Pressure: 30.40 "Hg

Humidity: 63%

Dew point: 41 °F

Location of JacksonLocation

Historic Weather in Jackson — Graph

°F

Jackson temperature yesterday

Maximum temperature yesterday: 73 °F (at 2:27 PM)
Minimum temperature yesterday: 48 °F (at 5:35 AM)
Average temperature yesterday: 58 °F

Past Weeks' High & Low Weather Summary

 TemperatureHumidityPressure
High102 °F (Jul 22, 6:51 PM)100% (Jul 22, 5:35 AM)30.46 "Hg (Jul 22, 5:35 AM)
Low34 °F (Jul 25, 6:15 AM)10% (Jul 22, 6:51 PM)30.07 "Hg (Jul 20, 5:55 PM)
Average59 °F54%30.25 "Hg
* Reported Jul 16 8:51 AM — Jul 31 8:56 AM, Jackson, Weather by CustomWeather, © 2014

Note: Actual official high and low records may vary slightly from our data, if they occured in-between our weather recording intervals... More about our weather records

Advertising

Jackson weather history for previous 24 hours

 ConditionsComfort  
Time TempWeatherWind HumidityBarometerVisibility
8:56 AM
Jul 31
54 °FSunny.No wind63%30.40 "Hg10 mi
7:53 AM48 °FSunny.No wind82%30.40 "Hg10 mi
6:53 AM43 °FClear.No wind87%30.40 "Hg10 mi
6:35 AM43 °FClear.3 mph81%30.40 "Hg10 mi
6:15 AM43 °FClear.3 mph81%30.40 "Hg10 mi
5:55 AM43 °FClear.No wind81%30.39 "Hg10 mi
5:35 AM43 °FClear.3 mph87%30.39 "Hg10 mi
5:15 AM43 °FClear.No wind87%30.39 "Hg10 mi
4:55 AM45 °FClear.3 mph81%30.38 "Hg10 mi
4:35 AM45 °FClear.No wind81%30.39 "Hg10 mi
4:15 AM43 °FClear.No wind87%30.39 "Hg10 mi
3:55 AM45 °FClear.7 mph87%30.39 "Hg10 mi
3:35 AM45 °FClear.5 mph87%30.40 "Hg10 mi
3:15 AM45 °FClear.6 mph87%30.40 "Hg10 mi
2:55 AM48 °FClear.3 mph87%30.40 "Hg10 mi
2:35 AM46 °FClear.3 mph87%30.40 "Hg10 mi
2:15 AM46 °FClear.6 mph93%30.40 "Hg10 mi
1:55 AM46 °FClear.7 mph93%30.40 "Hg10 mi
1:35 AM52 °FClear.No wind77%30.40 "Hg10 mi
1:15 AM48 °FClear.No wind87%30.39 "Hg10 mi
12:55 AM52 °FClear.No wind77%30.39 "Hg10 mi
12:35 AM55 °FClear.5 mph72%30.38 "Hg10 mi
12:15 AM55 °FPassing clouds.3 mph72%30.38 "Hg10 mi
11:55 PM
Jul 30
57 °FPassing clouds.No wind67%30.38 "Hg10 mi
11:35 PM57 °FPassing clouds.No wind67%30.39 "Hg10 mi
11:15 PM59 °FPassing clouds.No wind68%30.39 "Hg10 mi
10:55 PM57 °FPassing clouds.3 mph72%30.38 "Hg10 mi
10:35 PM59 °FPassing clouds.No wind72%30.38 "Hg10 mi
9:55 PM59 °FPassing clouds.3 mph72%30.38 "Hg10 mi
9:35 PM59 °FPassing clouds.No wind72%30.37 "Hg10 mi
9:15 PM59 °FSunny.3 mph68%30.36 "Hg10 mi
8:55 PM63 °FSunny.3 mph64%30.36 "Hg10 mi
7:55 PM64 °FSunny.6 mph60%30.34 "Hg10 mi
6:59 PM70 °FSunny.13 mph50%30.33 "Hg10 mi
5:53 PM73 °FSunny.N/A38%30.33 "Hg10 mi
4:56 PM73 °FSunny.13 mph36%30.33 "Hg10 mi
3:57 PM73 °FSunny.8 mph38%30.35 "Hg10 mi
3:00 PM73 °FSunny.9 mph36%30.35 "Hg10 mi
2:27 PM73 °FSmoke.3 mph33%30.36 "Hg10 mi
12:51 PM70 °FSunny.12 mph38%30.37 "Hg10 mi
11:51 AM68 °FSunny.10 mph40%30.37 "Hg10 mi
10:55 AM66 °FSunny.8 mph49%30.37 "Hg10 mi
Weather by CustomWeather, © 2014

See weather overviewHow to use our weather pages